TimeCST,TemperatureF,Dew PointF,Humidity,Sea Level PressureIn,VisibilityMPH,Wind Direction,Wind SpeedMPH,Gust SpeedMPH,PrecipitationIn,Events,Conditions,WindDirDegrees,DateUTC
12:15 AM,37.4,37.4,100,29.86,4.0,ENE,3.5,-,N/A,,Light Drizzle,60,2012-12-08 06:15:00
12:35 AM,37.6,37.4,99,29.87,4.0,NE,3.5,-,N/A,,Overcast,40,2012-12-08 06:35:00
12:55 AM,37.8,37.4,99,29.89,4.0,NW,6.9,-,N/A,,Overcast,310,2012-12-08 06:55:00
1:15 AM,37.2,36.9,99,29.88,5.0,NNW,9.2,-,N/A,,Overcast,340,2012-12-08 07:15:00
1:35 AM,37.4,36.9,98,29.88,5.0,North,8.1,-,N/A,,Overcast,350,2012-12-08 07:35:00
1:55 AM,37.2,36.7,98,29.90,4.0,NNW,9.2,-,N/A,,Overcast,330,2012-12-08 07:55:00
2:15 AM,36.7,36.1,98,29.90,4.0,NNW,11.5,-,N/A,,Overcast,340,2012-12-08 08:15:00
2:35 AM,36.1,35.6,98,29.90,5.0,North,10.4,-,N/A,,Overcast,360,2012-12-08 08:35:00
2:55 AM,36.0,34.7,95,29.90,5.0,North,10.4,-,N/A,,Overcast,360,2012-12-08 08:55:00
3:15 AM,35.6,34.3,95,29.89,5.0,North,13.8,-,N/A,,Overcast,10,2012-12-08 09:15:00
3:35 AM,35.1,34.7,99,29.90,3.0,North,12.7,-,N/A,,Overcast,10,2012-12-08 09:35:00
3:55 AM,34.7,34.5,99,29.92,3.0,North,10.4,-,N/A,,Overcast,360,2012-12-08 09:55:00
4:15 AM,34.7,34.2,98,29.92,3.0,NNE,10.4,-,N/A,,Overcast,20,2012-12-08 10:15:00
4:35 AM,34.3,34.2,99,29.92,2.0,NNE,12.7,-,N/A,,Overcast,20,2012-12-08 10:35:00
4:55 AM,34.0,33.8,99,29.93,2.0,NNE,10.4,-,N/A,,Overcast,20,2012-12-08 10:55:00
5:15 AM,34.2,34.0,99,29.94,4.0,NNE,8.1,-,N/A,,Overcast,20,2012-12-08 11:15:00
5:35 AM,34.2,33.8,99,29.94,4.0,North,11.5,-,N/A,,Overcast,10,2012-12-08 11:35:00
5:55 AM,34.0,33.6,99,29.95,5.0,NNE,9.2,-,N/A,,Overcast,20,2012-12-08 11:55:00
6:15 AM,34.0,32.9,96,29.95,5.0,NNE,8.1,-,N/A,,Overcast,20,2012-12-08 12:15:00
6:35 AM,34.2,33.1,96,29.97,5.0,North,8.1,-,N/A,,Overcast,10,2012-12-08 12:35:00
6:55 AM,34.2,32.9,95,29.97,7.0,North,6.9,-,N/A,,Overcast,360,2012-12-08 12:55:00
7:15 AM,34.2,32.9,95,29.98,5.0,North,8.1,-,N/A,,Overcast,350,2012-12-08 13:15:00
7:35 AM,34.2,32.9,95,29.98,5.0,North,6.9,-,N/A,,Overcast,350,2012-12-08 13:35:00
7:55 AM,34.2,32.9,95,29.98,5.0,NNW,4.6,-,N/A,,Overcast,340,2012-12-08 13:55:00
8:15 AM,34.3,32.9,94,29.99,5.0,North,6.9,-,N/A,,Overcast,350,2012-12-08 14:15:00
8:35 AM,34.7,33.3,94,30.00,5.0,NNW,6.9,-,N/A,,Overcast,330,2012-12-08 14:35:00
8:55 AM,34.7,33.3,94,30.00,4.0,North,8.1,-,N/A,Rain,Light Rain,360,2012-12-08 14:55:00
9:15 AM,34.9,33.3,94,30.01,5.0,North,8.1,-,N/A,,Light Drizzle,10,2012-12-08 15:15:00
9:35 AM,35.6,33.4,92,30.01,5.0,North,6.9,-,N/A,,Overcast,360,2012-12-08 15:35:00
9:55 AM,35.6,33.1,91,30.02,5.0,North,6.9,-,N/A,,Overcast,10,2012-12-08 15:55:00
10:15 AM,35.8,33.4,91,30.02,5.0,North,5.8,-,N/A,,Overcast,360,2012-12-08 16:15:00
10:35 AM,36.0,33.3,90,30.02,7.0,NE,5.8,-,N/A,,Overcast,50,2012-12-08 16:35:00
10:55 AM,35.8,32.9,89,30.02,7.0,North,6.9,-,N/A,,Overcast,10,2012-12-08 16:55:00
11:15 AM,36.1,33.1,89,30.02,7.0,NE,6.9,-,N/A,,Overcast,40,2012-12-08 17:15:00
11:35 AM,36.1,32.9,88,30.02,10.0,NE,5.8,-,N/A,,Overcast,40,2012-12-08 17:35:00
11:55 AM,36.3,32.7,87,30.02,10.0,NNE,6.9,-,N/A,,Overcast,30,2012-12-08 17:55:00
12:15 PM,36.7,33.1,87,30.01,10.0,North,5.8,-,N/A,,Overcast,10,2012-12-08 18:15:00
12:35 PM,38.3,33.8,84,30.00,10.0,NNE,6.9,-,N/A,,Overcast,20,2012-12-08 18:35:00
12:55 PM,38.3,32.9,81,29.99,10.0,NNE,8.1,-,N/A,,Overcast,30,2012-12-08 18:55:00
1:15 PM,38.5,33.4,82,30.00,10.0,NNE,6.9,-,N/A,,Overcast,20,2012-12-08 19:15:00
1:35 PM,38.7,32.2,78,30.00,10.0,North,6.9,-,N/A,,Overcast,10,2012-12-08 19:35:00
1:55 PM,38.3,32.2,79,30.00,10.0,NE,6.9,-,N/A,,Overcast,40,2012-12-08 19:55:00
2:15 PM,39.2,32.0,75,29.99,10.0,ENE,8.1,-,N/A,,Overcast,70,2012-12-08 20:15:00
2:35 PM,38.7,32.2,78,29.99,10.0,ENE,4.6,-,N/A,,Overcast,60,2012-12-08 20:35:00
2:55 PM,39.6,32.9,77,30.00,10.0,East,5.8,-,N/A,,Overcast,80,2012-12-08 20:55:00
3:15 PM,39.2,33.1,79,30.00,10.0,East,3.5,-,N/A,,Overcast,80,2012-12-08 21:15:00
3:35 PM,39.2,33.1,79,30.01,10.0,East,4.6,-,N/A,,Overcast,90,2012-12-08 21:35:00
3:55 PM,39.2,33.1,79,30.01,10.0,ENE,5.8,-,N/A,,Overcast,70,2012-12-08 21:55:00
4:15 PM,38.8,32.9,79,30.01,10.0,ENE,6.9,-,N/A,,Overcast,70,2012-12-08 22:15:00
4:35 PM,38.7,33.8,83,30.01,10.0,NE,8.1,-,N/A,,Overcast,50,2012-12-08 22:35:00
4:55 PM,38.3,33.1,81,30.02,10.0,ENE,11.5,-,N/A,,Overcast,60,2012-12-08 22:55:00
5:15 PM,37.6,32.9,83,30.03,10.0,ENE,8.1,-,N/A,,Overcast,60,2012-12-08 23:15:00
5:35 PM,37.4,33.1,84,30.03,10.0,ENE,6.9,-,N/A,,Overcast,60,2012-12-08 23:35:00
5:55 PM,37.0,33.1,86,30.04,10.0,ENE,5.8,-,N/A,,Overcast,70,2012-12-08 23:55:00
6:15 PM,37.2,32.7,84,30.04,10.0,ENE,5.8,-,N/A,,Overcast,70,2012-12-09 00:15:00
6:35 PM,36.9,32.5,84,30.04,10.0,East,5.8,-,N/A,,Overcast,80,2012-12-09 00:35:00
6:55 PM,36.9,32.5,84,30.03,10.0,East,6.9,-,N/A,,Overcast,90,2012-12-09 00:55:00
7:15 PM,36.7,32.4,84,30.02,10.0,East,8.1,-,N/A,,Overcast,80,2012-12-09 01:15:00
7:35 PM,37.4,32.0,81,30.02,10.0,East,8.1,-,N/A,,Scattered Clouds,80,2012-12-09 01:35:00
7:55 PM,36.7,32.4,84,30.02,10.0,ENE,5.8,-,N/A,,Mostly Cloudy,70,2012-12-09 01:55:00
8:15 PM,36.5,32.2,84,30.02,10.0,ENE,6.9,-,N/A,,Overcast,60,2012-12-09 02:15:00
8:35 PM,36.5,32.5,86,30.02,10.0,ENE,9.2,-,N/A,,Overcast,70,2012-12-09 02:35:00
8:55 PM,36.7,32.4,84,30.01,10.0,East,6.9,-,N/A,,Overcast,80,2012-12-09 02:55:00
9:15 PM,36.9,32.5,84,30.01,10.0,East,10.4,-,N/A,,Overcast,80,2012-12-09 03:15:00
9:35 PM,36.7,32.9,86,30.02,10.0,ENE,8.1,-,N/A,,Overcast,70,2012-12-09 03:35:00
9:55 PM,37.2,33.3,86,30.01,10.0,ENE,9.2,-,N/A,,Overcast,70,2012-12-09 03:55:00
10:15 PM,37.8,34.0,86,30.01,10.0,East,9.2,-,N/A,,Overcast,90,2012-12-09 04:15:00
10:35 PM,37.9,34.2,86,30.01,10.0,East,11.5,17.3,N/A,,Overcast,90,2012-12-09 04:35:00
10:55 PM,37.8,34.3,87,30.01,10.0,East,10.4,-,N/A,,Overcast,80,2012-12-09 04:55:00
11:15 PM,37.4,34.2,88,30.00,10.0,East,9.2,-,N/A,,Overcast,90,2012-12-09 05:15:00
11:35 PM,37.4,34.0,87,30.01,10.0,East,11.5,-,N/A,,Overcast,90,2012-12-09 05:35:00
11:55 PM,37.4,34.0,87,30.00,10.0,East,10.4,-,N/A,,Overcast,90,2012-12-09 05:55:00